Weather in Komsomolsk-at-Amur

Russia / Khabarovsk Krai     50°32′59″N   137°00′28″E
temp.,
°C
wind,
m/s
gust,
m/s
humid.,
%
clouds,
%
prec.,
mm/h
press.,
hPa
HPBL,
m
26 february, fri
fri2601:00−18s2398100 0.3 1023105
04:00−18s2398100 0.6 1023139
07:00−18s2397100 0.2 1024118
10:00−18s3494100 0.4 1024256
13:00−15s3389100 0.3 1025365
16:00−14s3492100 0.4 1025313
19:00−17s2396100 0.0 102883
22:00−19s2310096 0.1 103063
27 february, sat
sat2701:00−20s359997 0.0 1031128
04:00−21s489898 0.1 1032254
07:00−22s51098100 0.1 1033339
10:00−20s61195100 0.1 1031410
13:00−16s71290100 0.0 1029516
16:00−14s81387100 0.0 1026553
19:00−14s8148999 0.1 1025516
22:00−13s7148599 0.2 1021472
28 february, sun
sun2801:00−13s61385100 0.0 1017488
04:00−13ssw71488100 0.1 1014612
07:00−13s51388100 0.0 1013440
10:00−12ssw4687100 0.0 1012332
13:00−9s1180100 0.0 1012420
16:00−7sse117995 0.0 1011362
19:00−10nne148797 0.1 1015114
22:00−12nne357799 0.1 1018127
1 march, mon
mon101:00−17n247998 0.0 102099
04:00−19sw118977 0.0 102329
07:00−20sse239896 0.0 102450
10:00−18s359398 0.1 1025403
13:00−16s4687100 0.1 1025526
16:00−15s2383100 0.1 1024472
19:00−18se119599 0.1 102623
22:00−20e1191100 0.1 102738
2 march, tue
tue201:00−22e128981 0.0 102834
04:00−24ene129256 0.0 102924
07:00−26sse119839 0.0 103119
10:00−23s349358 0.0 1030262
13:00−19s458346 0.0 1029414
16:00−18s468423 0.0 1028414
19:00−21s349595 0.0 102994
22:00−24s239480 0.0 103029